Regional Weather Roundup
Issued by NWS

Home | Current Version | Previous Version | Graphics & Text | Print | Product List | Glossary On
Versions: 1 2 3 4 5 6 7 8 9 10 11 12 13 14 15 16 17 18 19 20 21 22 23 24 25 26 27 28 29 30 31 32 33 34 35 36 37 38 39 40 41 42 43 44 45 46 47 48 49 50
000
ASUS43 KLMK 310302
RWRKY
KENTUCKY REGIONAL WEATHER ROUNDUP
NATIONAL WEATHER SERVICE LOUISVILLE KY
1100 PM EDT THU JUL 30 2015

NOTE "FAIR" INDICATES FEW OR NO CLOUDS BELOW 12,000 FEET
WITH NO SIGNIFICANT WEATHER AND/OR OBSTRUCTIONS TO VISIBILITY.

KYZ001>023-026-027-061>063-070>075-310400-
WESTERN AND SOUTH CENTRAL KENTUCKY

CITY           SKY/WX    TMP DP  RH WIND       PRES   REMARKS
PADUCAH        PTCLDY    70  67  90 CALM      30.10R
HENDERSON      CLEAR     70  64  83 SW3       30.08R
OWENSBORO      PTCLDY    73  67  81 CALM      30.09R
HOPKINSVILLE   CLEAR     72  63  72 SW1       30.10R
BOWLING GREEN  PTCLDY    73  62  68 CALM      30.10R
GLASGOW        NOT AVBL
$$

KYZ024-025-028>034-038-045-046-053-310400-
NORTH CENTRAL KENTUCKY

CITY           SKY/WX    TMP DP  RH WIND       PRES   REMARKS
LOUISVILLE/SDF PTCLDY    78  60  53 W5        30.07R
LOUISVILLE/LOU PTCLDY    75  60  59 CALM      30.08R
FORT KNOX      PTCLDY    67  63  89 CALM      30.08R
$$

KYZ035>037-039>044-047>052-055>060-089>105-310400-
NORTHEAST KENTUCKY

CITY           SKY/WX    TMP DP  RH WIND       PRES   REMARKS
LEXINGTON      PTCLDY    71  61  70 CALM      30.09R
COVINGTON      CLEAR     72  60  66 CALM      30.07R
FRANKFORT      CLEAR     69  62  78 CALM      30.07R
$$

KYZ054-064>069-076>088-106>120-310400-
SOUTHEAST KENTUCKY

CITY           SKY/WX    TMP DP  RH WIND       PRES   REMARKS
JACKSON        CLEAR     74  57  55 N3        30.10R
LONDON         CLEAR     71  60  68 CALM      30.10R
SOMERSET       NOT AVBL
MIDDLESBORO    CLEAR     71  65  80 CALM      30.09R
MONTICELLO     CLEAR     65  64  96 CALM      30.13R
$$



USA.gov is the U.S. government's official web portal to all federal, state and local government web resources and services.